DateTimeUTC,F1_A11,F1_S11,BsB_S11,BsG_S11,BsR_S11,BbsB_S11,BbsG_S11,BbsR_S11,BaB_A11,BaG_A11,BaR_A11,Tu_S11,T_S11,Uu_S11,U_S11,P_S11,T1_A11
2021-01-28T16:00:00Z,00000200,21000000,,,,,,,0000.30,0000.71,0000.02,16.0,23.4,,00.0,0632.3,31.0
2021-01-28T16:01:00Z,00000200,21000000,,,,,,,-000.22,-000.02,-000.05,16.0,23.4,,00.0,0632.3,31.0
2021-01-28T16:02:00Z,00000200,21000000,,,,,,,0000.02,-000.27,-000.06,16.0,23.4,,00.0,0632.3,31.0
2021-01-28T16:03:00Z,00000200,61000000,,,,,,,-000.18,-000.15,-000.13,16.1,23.5,,00.0,0632.3,31.0
2021-01-28T16:04:00Z,00000200,41000000,0000.57,0000.08,0000.08,0000.34,0000.02,-000.03,0000.03,0000.15,0000.25,16.5,23.4,,00.0,0633.1,31.0
2021-01-28T16:05:00Z,00000200,01000000,0000.42,0000.06,0000.10,0000.15,0000.21,-000.12,0000.12,-000.07,-000.29,16.5,23.3,,00.0,0633.2,30.9
2021-01-28T16:06:00Z,00000200,01000000,-000.26,-000.03,0000.27,0000.04,0000.03,0000.03,-000.20,-000.07,0000.28,16.4,23.3,,00.0,0633.2,30.9
2021-01-28T16:07:00Z,00000200,01000000,0000.35,0000.15,-000.10,-000.29,0000.04,0000.26,0000.05,0000.02,-000.47,16.4,23.2,,00.0,0633.2,30.9
2021-01-28T16:08:00Z,00000200,01000000,0000.14,0000.14,0000.02,0000.42,-000.16,-000.04,0000.46,0000.46,0000.57,16.4,23.2,,00.0,0633.2,30.9
2021-01-28T16:09:00Z,00000200,01000000,0000.12,0000.17,0000.13,0000.77,-000.07,-000.16,-000.05,0000.10,0000.11,16.4,23.2,,00.0,0633.2,30.9
2021-01-28T16:10:00Z,00000200,01000000,0000.11,0000.16,0000.54,0000.43,0000.05,0000.00,-000.11,-000.16,-000.28,16.5,23.3,,00.0,0633.2,30.9
2021-01-28T16:11:00Z,00000200,01000000,-000.37,0000.05,0000.37,-000.28,0000.15,-000.12,0000.33,0000.11,0000.02,16.5,23.3,,00.0,0633.2,31.0
2021-01-28T16:12:00Z,00000200,01000000,0000.47,0000.20,0000.27,0000.05,-000.04,0000.15,-000.32,-000.08,0000.08,16.6,23.3,,00.0,0633.2,31.0
2021-01-28T16:13:00Z,00000200,01000000,-000.85,-000.17,-000.06,-000.23,-000.10,-000.14,0000.21,0000.26,0000.12,16.6,23.3,,00.0,0633.2,31.0
2021-01-28T16:14:00Z,00000200,01000000,-000.03,0000.22,-000.04,-000.45,0000.00,-000.03,0000.21,-000.48,-000.18,16.7,23.4,,00.0,0633.3,31.0
2021-01-28T16:15:00Z,00000200,01000000,-000.36,0000.10,-000.09,0000.10,-000.06,-000.17,-000.15,0000.25,-000.14,16.6,23.3,,00.0,0633.3,30.9
2021-01-28T16:16:00Z,00000200,01000000,0000.42,0000.12,-000.18,0000.02,-000.11,-000.26,0000.12,0000.02,0000.70,16.5,23.3,,00.0,0633.3,30.9
2021-01-28T16:17:00Z,00000200,01000000,0000.75,-000.08,0000.14,0000.14,-000.08,-000.06,-000.04,0000.17,-000.42,16.4,23.3,,00.0,0633.3,30.9
2021-01-28T16:18:00Z,00000200,01000000,0000.84,0000.17,-000.02,0000.00,0000.11,-000.07,0000.10,-000.04,-000.05,16.3,23.2,,00.0,0633.3,30.9
2021-01-28T16:19:00Z,00000200,01000000,0000.14,0000.01,0000.27,0000.07,-000.11,0000.15,-000.02,-000.32,0000.19,16.2,23.2,,00.0,0633.3,30.9
2021-01-28T16:20:00Z,00000200,01000000,0000.04,0000.32,0000.11,-000.38,-000.00,0000.17,-000.01,0000.47,0000.06,16.1,23.1,,00.0,0633.3,30.8
2021-01-28T16:21:00Z,00000200,01000000,0000.46,-000.21,0000.00,0000.30,0000.05,0000.12,-000.14,-000.50,0000.10,16.0,23.0,,00.0,0633.3,30.8
2021-01-28T16:22:00Z,00000200,01000000,-000.01,0000.06,0000.29,-000.09,0000.02,-000.07,0000.37,0000.05,-000.19,16.0,23.0,,00.0,0633.3,30.8
2021-01-28T16:23:00Z,00000200,01000000,0000.69,0000.13,-000.27,0000.24,-000.08,-000.13,0000.27,0000.15,0000.04,16.0,23.0,,00.0,0633.3,30.8
2021-01-28T16:24:00Z,00000200,01000000,0000.06,-000.06,0000.29,-000.22,0000.08,-000.14,0000.08,0000.55,0000.20,16.0,23.0,,00.0,0633.3,30.8
2021-01-28T16:25:00Z,00000200,01000000,-000.16,0000.14,0000.11,-000.28,-000.00,0000.11,0000.20,0000.24,0000.43,16.0,23.0,,00.0,0633.3,30.8
2021-01-28T16:26:00Z,00000200,01000000,0000.76,-000.14,-000.03,-000.30,0000.31,-000.20,-000.31,-000.48,-000.37,16.1,23.0,,00.0,0633.3,30.9
2021-01-28T16:27:00Z,00000200,01000000,0000.23,0000.17,-000.04,-000.25,0000.01,-000.03,-000.13,-000.52,-000.16,16.0,23.0,,00.0,0633.3,30.8
2021-01-28T16:28:00Z,00000200,01000000,0000.20,0000.28,0000.18,-000.11,0000.27,0000.17,0000.07,0000.58,0000.12,16.0,23.0,,00.0,0633.3,30.8
2021-01-28T16:29:00Z,00000200,01000000,-000.36,0000.13,0000.12,0000.13,0000.20,0000.07,0000.03,0000.08,-000.19,15.9,23.0,,00.0,0633.3,30.8
2021-01-28T16:30:00Z,00000200,01000000,0000.16,0000.41,0000.33,-000.03,-000.03,-000.04,-000.29,-000.28,-000.09,15.8,22.9,,00.0,0633.3,30.8
2021-01-28T16:31:00Z,00000200,01000000,-000.17,-000.07,0000.01,-000.15,-000.10,-000.03,0000.28,0000.12,0000.23,15.8,22.9,,00.0,0633.3,30.8
2021-01-28T16:32:00Z,00000200,01000000,0000.29,0000.22,0000.03,0000.56,-000.21,0000.02,0000.11,0000.15,-000.02,15.7,22.8,,00.0,0633.3,30.8
2021-01-28T16:33:00Z,00000200,01000000,-000.10,0000.26,0000.35,0000.65,-000.07,0000.01,0000.05,-000.07,0000.30,15.6,22.8,,00.0,0633.2,30.8
2021-01-28T16:34:00Z,00000200,01000000,0000.60,0000.00,0000.06,0000.61,-000.13,-000.05,0000.23,-000.14,-000.49,15.5,22.7,,00.0,0633.2,30.8
2021-01-28T16:35:00Z,00000200,01000000,0000.39,0000.43,0000.19,0000.63,0000.09,0000.09,0000.30,0000.19,0000.20,15.5,22.7,,00.0,0633.2,30.8
2021-01-28T16:36:00Z,00000200,01000000,-000.08,0000.09,0000.18,-000.35,-000.23,0000.12,-000.04,-000.02,0000.32,15.4,22.6,,00.0,0633.2,30.8
2021-01-28T16:37:00Z,00000200,01000000,0000.10,0000.15,0000.04,-000.05,0000.01,0000.18,-000.12,-000.27,-000.04,15.4,22.6,,00.0,0633.2,30.8
2021-01-28T16:38:00Z,00000200,01000000,-000.57,-000.00,0000.13,0000.14,-000.25,-000.02,0000.32,0000.38,-000.03,15.4,22.6,,00.0,0633.1,30.8
2021-01-28T16:39:00Z,00000200,01000000,0000.09,0000.10,0000.03,-000.03,0000.16,-000.17,-000.15,-000.11,-000.28,15.4,22.5,,00.0,0633.1,30.7
2021-01-28T16:40:00Z,00000200,01000000,0000.08,0000.04,0000.05,0000.06,-000.10,-000.21,-000.10,0000.10,0000.24,15.4,22.5,,00.0,0633.1,30.7
2021-01-28T16:41:00Z,00000200,01000000,-000.12,0000.06,0000.05,0000.00,-000.08,0000.07,0000.20,0000.10,0000.03,15.4,22.5,,00.0,0633.1,30.8
2021-01-28T16:42:00Z,00000200,01000000,-000.74,0000.23,0000.29,-000.08,0000.22,-000.04,0000.06,0000.44,-000.16,15.4,22.5,,00.0,0633.1,30.8
2021-01-28T16:43:00Z,00000200,01000000,0000.65,0000.07,0000.16,0000.06,-000.05,0000.06,0000.10,-000.10,0000.53,15.4,22.5,,00.0,0633.1,30.8
2021-01-28T16:44:00Z,00000200,01000000,-000.42,0000.07,0000.24,-000.03,-000.20,0000.20,-000.14,-000.19,0000.00,15.3,22.5,,00.0,0633.1,30.8
2021-01-28T16:45:00Z,00000200,01000000,0000.26,-000.02,0000.02,0000.29,0000.02,-000.07,-000.07,-000.03,-000.33,15.3,22.5,,00.0,0633.1,30.8
2021-01-28T16:46:00Z,00000200,01000000,0000.40,0000.04,-000.23,0000.19,-000.01,-000.26,-000.04,0000.34,0000.35,15.2,22.4,,00.0,0633.1,30.8
2021-01-28T16:47:00Z,00000200,01000000,-000.04,-000.19,0000.31,0000.14,0000.08,-000.12,0000.29,-000.17,-000.46,15.1,22.4,,00.0,0633.1,30.8
2021-01-28T16:48:00Z,00000200,01000000,0000.39,0000.16,0000.02,-000.10,0000.01,-000.17,-000.05,0000.05,-000.04,15.1,22.4,,00.0,0633.1,30.8
2021-01-28T16:49:00Z,00000200,01000000,0000.18,0000.16,0000.27,0000.26,0000.19,0000.07,0000.12,-000.02,0000.27,15.0,22.3,,00.0,0633.2,30.8
2021-01-28T16:50:00Z,00000200,01000000,-000.26,0000.19,0000.48,0000.32,0000.13,0000.07,-000.21,0000.14,-000.25,15.0,22.3,,00.0,0633.2,30.8
2021-01-28T16:51:00Z,00000200,01000000,0000.67,-000.16,0000.29,0000.37,-000.00,0000.11,-000.08,-000.36,0000.27,14.9,22.2,,00.0,0633.2,30.8
2021-01-28T16:52:00Z,00000200,01000000,-000.23,0000.06,0000.06,-000.24,0000.08,-000.20,0000.32,0000.58,0000.23,14.9,22.2,,00.0,0633.2,30.8
2021-01-28T16:53:00Z,00000200,01000000,0000.15,-000.01,-000.12,0000.17,0000.06,0000.01,0000.21,-000.12,0000.13,14.9,22.2,,00.0,0633.1,30.8
2021-01-28T16:54:00Z,00000200,01000000,0000.38,0000.30,0000.14,-000.41,-000.20,0000.01,-000.13,0000.06,-000.19,14.9,22.2,,00.0,0633.1,30.8
2021-01-28T16:55:00Z,00000200,01000000,0000.19,0000.32,0000.31,-000.17,0000.10,0000.08,0000.23,0000.33,0000.04,15.0,22.2,,00.0,0633.0,30.8
2021-01-28T16:56:00Z,00000200,01000000,0000.02,0000.05,0000.23,-000.07,-000.04,0000.12,0000.69,0000.14,0000.72,15.0,22.2,,00.0,0633.0,30.8
2021-01-28T16:57:00Z,00000200,41000000,,,,,,,-000.09,0000.20,0000.02,15.1,22.3,,00.0,0633.1,30.9
2021-01-28T16:58:00Z,00000200,61000000,,,,,,,0000.19,0000.33,0000.08,14.6,22.4,,00.0,0632.0,30.9
2021-01-28T16:59:00Z,00000200,21000000,,,,,,,-000.20,-000.07,0000.21,14.7,22.5,,00.0,0632.0,30.9
